DW5225 Weather Reports


time (UTC)temp
C
wind
direction
speed
KPH
gust
KPH
rain 1hr
cm
rain 24hr
cm
rain mn
cm
humidity
%
barometer
mb
20260507040040 6 0 0.0 0.0 0.00 0.00 0.00 83 1011.8
20260507034546 6 0 0.0 0.0 0.00 0.00 0.00 83 1011.6
20260507033100 6 0 0.0 0.0 0.00 0.00 0.00 82 1011.6
20260507031542 6 0 0.0 0.0 0.00 0.00 0.00 82 1011.5
20260507030041 6 0 0.0 0.0 0.00 0.00 0.00 83 1011.6
20260507024551 6 0 0.0 0.0 0.00 0.00 0.00 82 1011.5
20260507023040 6 0 0.0 0.0 0.00 0.00 0.00 82 1011.5
20260507021538 6 0 0.0 0.0 0.00 0.00 0.00 81 1011.5
20260507020042 7 0 0.0 0.0 0.00 0.00 0.00 81 1011.3
20260507014540 7 0 0.0 0.0 0.00 0.00 0.00 81 1011.1
20260507013041 7 0 0.0 0.0 0.00 0.00 0.00 81 1011.1
20260507011541 7 0 0.0 0.0 0.00 0.00 0.00 81 1011.1
20260507010041 7 0 0.0 0.0 0.00 0.00 0.00 82 1011.1
20260507004536 7 0 0.0 0.0 0.00 0.00 0.00 81 1011.0
20260507003042 7 0 0.0 0.0 0.00 0.00 0.00 81 1010.9
20260507001604 7 0 0.0 0.0 0.00 0.00 0.00 80 1010.9
20260507000042 8 0 0.0 0.0 0.00 0.00 0.00 79 1010.9
20260506234549 8 0 0.0 0.0 0.00 0.00 0.00 77 1010.7
20260506233040 8 0 0.0 0.0 0.00 0.00 0.00 76 1010.8
20260506231538 8 0 0.0 0.0 0.00 0.00 0.00 74 1010.9
20260506230035 8 0 0.0 0.0 0.00 0.00 0.00 75 1010.8
20260506224600 8 0 0.0 0.0 0.00 0.00 0.00 75 1010.8
20260506223040 9 0 0.0 0.0 0.00 0.00 0.00 76 1010.9
20260506221541 9 0 0.0 0.0 0.00 0.00 0.00 77 1010.8
20260506220045 9 0 0.0 0.0 0.00 0.00 0.00 75 1010.8
20260506214538 10 0 0.0 0.0 0.00 0.00 0.00 74 1010.8
20260506213042 10 0 0.0 0.0 0.00 0.00 0.00 71 1010.6
20260506211550 10 0 0.0 0.0 0.00 0.00 0.00 69 1010.3
20260506210038 10 0 0.0 0.0 0.00 0.00 0.00 69 1010.1
20260506204540 10 0 0.0 0.0 0.00 0.00 0.00 69 1010.1
20260506203040 10 0 0.0 0.0 0.00 0.00 0.00 70 1009.7
20260506201540 10 0 0.0 0.0 0.00 0.00 0.00 68 1009.4
20260506200038 11 0 0.0 0.0 0.00 0.00 0.00 65 1009.1
20260506194538 11 0 0.0 0.0 0.00 0.00 0.00 63 1008.7
20260506193048 10 0 0.0 0.0 0.00 0.00 0.00 65 1008.7
20260506191542 11 0 0.0 0.0 0.00 0.00 0.00 64 1008.2
20260506190041 11 0 0.0 0.0 0.00 0.00 0.00 63 1007.8
20260506184538 11 0 0.0 0.0 0.00 0.00 0.00 62 1007.6
20260506183043 12 0 0.0 0.0 0.00 0.00 0.00 58 1007.4
20260506181557 12 0 0.0 0.0 0.00 0.00 0.00 56 1007.2
20260506180041 13 0 0.0 0.0 0.00 0.00 0.00 55 1007.0
20260506174538 13 0 0.0 0.0 0.00 0.00 0.00 53 1006.9
20260506173054 13 0 0.0 0.0 0.00 0.00 0.00 53 1006.8
20260506171536 13 0 0.0 0.0 0.00 0.00 0.00 52 1006.6
20260506170050 14 0 0.0 0.0 0.00 0.00 0.00 51 1006.6
20260506164542 15 0 0.0 0.0 0.00 0.00 0.00 49 1006.6
20260506163040 15 0 0.0 0.0 0.00 0.00 0.00 48 1006.2
20260506161539 15 0 0.0 0.0 0.00 0.00 0.00 49 1006.4
20260506160041 14 0 0.0 0.0 0.00 0.00 0.00 50 1006.4
20260506154548 15 0 0.0 0.0 0.00 0.00 0.00 49 1006.4
20260506153042 13 0 0.0 0.0 0.00 0.00 0.00 52 1006.4
20260506151544 13 0 0.0 0.0 0.00 0.00 0.00 51 1006.5
20260506150040 14 0 0.0 0.0 0.00 0.00 0.00 52 1006.1
20260506144544 14 0 0.0 0.0 0.00 0.00 0.00 52 1006.3
20260506143039 15 0 0.0 0.0 0.00 0.00 0.00 51 1006.2
20260506141541 15 0 0.0 0.0 0.00 0.00 0.00 49 1006.2
20260506140042 16 0 0.0 0.0 0.00 0.00 0.00 47 1006.1
20260506134541 15 0 0.0 0.0 0.00 0.00 0.00 49 1006.1
20260506133039 15 0 0.0 0.0 0.00 0.00 0.00 50 1006.4
20260506131555 15 0 0.0 0.0 0.00 0.00 0.00 51 1006.2
20260506130046 15 0 0.0 0.0 0.00 0.00 0.00 50 1006.0
20260506124535 15 0 0.0 0.0 0.00 0.00 0.00 54 1006.2
20260506123043 15 0 0.0 0.0 0.00 0.00 0.00 55 1006.2
20260506121542 15 0 0.0 0.0 0.00 0.00 0.00 54 1006.4
20260506120041 14 0 0.0 0.0 0.00 0.00 0.00 56 1006.4
20260506114534 15 0 0.0 0.0 0.00 0.00 0.00 53 1006.4
20260506113042 15 0 0.0 0.0 0.00 0.00 0.00 53 1006.2
20260506111540 14 0 0.0 0.0 0.00 0.00 0.00 55 1006.5
20260506110040 15 0 0.0 0.0 0.00 0.00 0.00 53 1006.9
20260506104547 15 0 0.0 0.0 0.00 0.00 0.00 52 1006.7
20260506103042 15 0 0.0 0.0 0.00 0.00 0.00 52 1006.8
20260506101536 14 0 0.0 0.0 0.00 0.00 0.00 54 1007.0
20260506100042 14 0 0.0 0.0 0.00 0.00 0.00 53 1007.4
20260506094551 13 0 0.0 0.0 0.00 0.00 0.00 54 1007.4
20260506093041 13 0 0.0 0.0 0.00 0.00 0.00 54 1007.3
20260506091541 14 0 0.0 0.0 0.00 0.00 0.00 50 1007.0
20260506090039 14 0 0.0 0.0 0.00 0.00 0.00 50 1006.7
20260506084539 13 0 0.0 0.0 0.00 0.00 0.00 51 1006.5
20260506083044 14 0 0.0 0.0 0.00 0.00 0.00 50 1006.5
20260506081543 13 0 0.0 0.0 0.00 0.00 0.00 53 1006.5
20260506073041 13 0 0.0 0.0 0.00 0.00 0.00 51 1006.9
20260506071547 13 0 0.0 0.0 0.00 0.00 0.00 51 1007.0
20260506061541 12 0 0.0 0.0 0.00 0.00 0.00 58 1007.8
20260506044543 11 0 0.0 0.0 0.00 0.00 0.00 66 1008.7
20260506043040 10 0 0.0 0.0 0.00 0.00 0.00 71 1008.9
20260506041547 9 0 0.0 0.0 0.00 0.00 0.00 72 1009.2